SCP
0 0 0 0 0 0 -0 0 -0 0 0 0 0 0 0 0 0 0 -0 0 0 0 0 1 0 0 0 0 0 0 0 0 0 0 0 0 0 0 0 0 0 0 0 0 0 0 0 0 0
0 0 0 0 0 0 0 0 0 -0 0 0 0 -0 0 0 0 0 0 0 0 0 0 0 1 0 0 0 0 0 0 0 0 0 0 0 0 0 0 0 0 0 0 0 0 0 0 0 0
0 0 0 0 0 0 0 0 -0 -0 0 0 0 0 0 0 0 0 0 0 0 0 0 0 1 1 0 0 0 0 0 0 0 0 0 0 0 0 0 0 0 0 0 0 0 0 0 0 0
0 0 0 0 -0 -0 -0 0 0 0 0 -0 -0 0 0 0 0 0 0 0 0 0 0 1 1 1 1 1 0 0 0 0 0 0 0 0 0 0 0 0 0 0 0 0 0 0 0 0 0
0 0 0 0 0 0 0 0 0 0 -0 -0 0 0 0 0 0 0 0 0 0 0 0 1 0 1 1 1 0 0 0 0 0 0 0 0 0 0 0 0 0 0 0 0 0 0 0 0 0
0 0 0 0 0 0 0 0 0 0 0 0 0 0 0 0 0 -0 0 0 0 0 0 0 1 1 1 1 1 0 0 0 0 0 0 0 0 0 0 0 0 0 0 0 0 0 0 0 0
0 0 0 0 0 0 0 -0 0 0 0 0 0 0 0 0 0 0 0 0 0 1 0 1 1 1 1 1 1 0 0 0 0 0 0 0 1 1 1 1 0 0 0 0 0 0 0 0 0
0 0 0 0 0 0 -0 0 -0 0 0 0 0 0 0 -0 0 0 0 0 0 1 2 1 1 1 1 1 1 1 1 0 0 1 1 1 1 1 1 1 1 0 0 0 0 0 0 0 0
0 0 0 0 0 0 0 0 0 0 0 0 0 0 0 0 0 0 0 0 0 0 2 2 1 1 1 1 2 1 1 1 0 1 1 1 1 1 0 1 1 1 0 0 0 0 0 0 0
0 0 0 0 0 0 0 0 0 0 0 0 0 0 0 0 0 0 0 0 0 0 2 3 2 2 2 1 1 2 1 1 1 1 1 1 1 0 0 0 1 1 1 0 0 0 0 0 0
0 0 0 0 0 0 0 0 0 0 0 0 0 0 0 0 0 0 0 0 0 0 0 1 2 2 2 1 1 2 2 2 2 1 1 1 0 0 1 0 1 1 1 0 0 0 0 0 0
0 0 0 0 0 0 0 0 0 0 0 0 0 0 0 0 0 0 0 0 0 0 0 0 2 4 2 1 1 2 1 1 1 1 0 1 1 1 0 0 0 0 0 0 0 0 0 0 0
0 0 0 0 0 0 0 0 0 0 0 0 0 0 0 0 0 0 0 0 0 0 0 1 2 4 2 1 1 2 1 1 1 1 1 1 1 1 0 0 0 0 0 0 0 0 0 0 0
0 0 0 0 0 0 0 0 0 0 0 0 0 0 0 0 0 0 0 0 0 0 0 0 1 2 2 2 2 2 2 1 1 1 1 1 1 0 0 1 0 0 0 0 0 0 0 0 0
0 0 0 0 0 0 0 0 0 0 0 0 0 0 0 0 0 0 0 0 0 0 0 0 1 1 2 2 1 3 3 2 1 1 1 1 1 1 1 1 1 0 0 0 0 0 0 0 0
0 0 0 0 0 0 0 0 0 0 0 0 0 0 0 0 0 0 0 0 0 0 0 0 1 2 3 2 5 3 3 2 1 1 1 1 1 1 1 1 1 1 1 0 0 0 0 0 0
0 0 0 0 0 0 0 0 0 0 0 0 0 0 0 0 0 0 0 0 0 0 0 1 3 3 4 4 4 6 3 2 1 1 1 1 1 1 1 1 1 1 1 1 0 0 0 0 0
0 0 0 0 0 0 0 0 0 0 0 0 0 0 0 0 0 0 0 0 0 0 0 1 3 4 5 6 4 5 3 1 1 1 1 1 1 1 1 1 1 1 1 0 0 0 0 0 0
0 0 0 0 0 0 0 0 0 0 0 0 0 0 0 0 0 0 0 0 0 1 1 2 3 5 6 5 4 4 3 2 1 1 1 1 1 1 1 1 1 1 0 0 0 0 0 0 0
0 0 0 0 0 0 0 0 0 0 0 0 0 0 0 0 0 0 0 0 0 0 2 3 4 4 5 4 4 3 1 1 1 1 0 1 1 1 1 0 0 0 0 0 0 0 0 0 0
0 0 0 0 0 0 0 0 0 0 -0 0 0 0 0 0 0 0 0 0 1 1 2 2 4 4 4 3 3 2 1 1 0 0 1 1 1 1 1 0 0 0 0 0 0 0 0 0 0
0 0 0 0 0 0 0 0 0 0 -0 -0 -0 0 -0 0 0 0 0 0 1 1 1 1 3 2 2 2 1 1 1 1 0 0 0 1 1 1 0 0 0 0 0 0 0 0 0 0 0
0 0 0 0 0 0 0 0 -0 0 0 0 -0 0 0 0 0 0 0 1 1 1 1 1 1 2 1 1 1 0 0 0 0 0 0 1 0 0 0 0 0 0 0 0 0 0 0 0 0
0 0 0 0 0 0 -0 0 -0 0 -0 0 0 0 0 0 0 0 0 0 0 0 1 1 1 1 1 0 0 0 0 0 0 0 0 0 0 0 0 0 0 0 0 0 0 0 0 0 -0
0 0 0 0 0 0 0 0 0 0 0 -0 0 0 0 0 0 0 -0 -0 -0 0 0 1 1 0 1 0 0 0 0 0 0 0 0 0 0 0 0 0 0 0 0 0 0 0 0 0 0
0 0 0 0 0 0 0 0 -0 0 0 -0 0 0 0 0 0 0 -0 -0 -0 0 0 0 0 0 0 0 0 0 0 0 0 0 0 0 0 0 0 0 0 0 0 0 0 0 0 -0 -0
0 0 0 0 0 0 0 0 0 -0 -0 -0 0 0 0 -0 0 -0 -0 -0 0 0 0 0 0 0 0 0 0 0 0 0 0 0 0 0 0 0 0 0 0 0 0 0 0 0 0 0 -0
0 0 0 0 0 0 0 0 0 -0 0 0 0 -0 -0 -0 -0 -0 -0 -0 0 0 0 0 0 0 0 0 0 0 0 0 0 0 0 0 0 0 0 -0 -0 -0 0 0 0 0 0 0 -0
0 0 0 0 0 0 0 0 0 -0 -0 0 0 -0 -0 -0 -0 -0 -0 -0 -0 -0 -0 0 0 0 0 0 0 0 0 0 0 0 0 0 0 -0 0 -0 0 0 -0 0 0 0 0 0 0
0 0 0 0 0 0 0 0 0 0 0 0 0 -0 0 -0 -0 -0 -0 -0 -0 -0 -0 0 0 0 0 0 0 0 0 0 0 0 0 0 0 -0 -0 -0 -0 0 0 0 0 0 0 0 -0
Wind_Speed_500mb
6 8 12 6 5 4 7 15 20 15 14 32 28 17 5 15 12 10 40 39 28 15 30 31 32 31 27 25 25 24 21 16 11 9 8 7 8 9 9 10 10 11 9 8 8 9 9 10 9
9 12 2 5 3 4 10 18 2 7 11 32 27 10 17 14 52 44 40 26 14 6 23 29 34 33 30 28 27 26 24 19 14 9 6 4 5 7 9 9 9 10 11 10 10 10 9 8 9
22 14 7 7 7 11 10 12 11 12 24 25 9 10 3 16 34 30 28 30 13 12 19 30 35 32 30 30 28 28 27 22 16 11 6 2 4 7 11 11 8 8 9 10 12 13 14 13 11
15 8 13 3 19 27 22 22 12 9 7 51 35 4 15 19 18 27 24 17 13 16 17 31 41 37 34 35 32 31 29 25 20 13 7 1 5 9 12 12 12 10 11 14 17 18 19 18 17
14 6 7 8 18 27 28 39 44 26 34 75 44 14 29 40 32 22 16 18 21 17 24 28 49 45 41 40 37 35 32 29 24 18 11 5 6 11 14 14 13 14 15 16 17 21 27 27 25
12 8 5 11 22 34 33 48 18 19 6 26 10 25 18 35 27 16 7 14 29 34 34 29 42 52 45 46 43 41 37 34 30 26 19 15 13 15 17 19 18 18 18 21 27 30 34 33 31
10 5 11 16 29 38 32 41 10 8 17 14 18 11 40 40 21 14 16 8 37 44 45 41 42 51 53 51 48 46 44 40 38 34 28 24 22 21 21 22 16 17 18 21 25 30 34 37 38
11 2 10 12 26 39 38 36 34 20 3 6 22 7 9 29 15 17 19 5 10 37 47 50 49 50 55 58 55 54 51 48 47 43 37 33 31 26 25 24 19 20 19 23 27 30 31 34 35
32 6 11 21 22 33 52 25 43 38 15 25 32 27 39 40 43 13 14 19 15 25 39 50 51 52 52 60 59 60 58 57 56 53 48 44 40 32 28 25 21 20 20 22 22 30 20 21 27
33 13 19 23 29 34 40 32 55 41 23 37 51 39 65 59 30 28 24 28 31 33 45 53 57 57 60 55 56 63 64 66 68 66 57 52 45 39 32 25 22 17 19 20 21 18 15 13 19
50 44 31 40 55 63 51 51 51 41 15 24 21 37 36 44 51 22 26 34 36 44 39 30 46 55 69 58 52 58 62 69 74 73 64 60 52 44 36 22 22 18 24 22 22 17 18 14 7
38 54 56 45 63 67 47 62 49 53 44 57 63 68 51 46 42 37 33 31 38 51 38 49 35 60 73 63 58 56 50 63 78 78 69 68 58 47 37 26 24 27 26 21 21 22 20 17 17
49 42 54 61 63 73 80 63 54 63 72 71 60 68 66 57 66 64 44 38 43 59 37 34 40 49 72 72 63 59 52 53 58 53 60 70 59 44 32 31 25 31 33 33 23 22 32 27 23
43 46 55 56 67 69 55 60 63 62 64 68 71 79 81 67 61 65 57 55 53 52 29 31 37 46 62 73 65 63 55 53 51 48 47 50 43 33 31 27 27 34 40 35 35 30 35 39 36
55 40 38 51 58 55 64 56 59 68 68 76 71 73 68 68 76 76 76 76 66 28 24 35 37 45 64 69 67 66 58 52 52 49 42 40 36 33 30 35 42 39 39 39 32 43 44 44 42
36 31 42 44 41 58 36 80 40 60 71 59 73 85 75 70 71 73 59 67 40 37 37 43 42 46 57 68 72 68 54 51 46 46 46 42 37 37 36 36 38 37 39 39 35 38 46 46 43
33 41 44 49 44 36 27 65 34 63 64 67 85 87 84 85 77 66 54 53 63 62 48 45 51 49 55 61 76 76 61 59 44 56 56 47 39 36 35 33 30 30 36 40 41 40 40 40 39
25 43 48 59 21 35 45 62 57 85 72 71 75 74 76 70 63 53 64 62 51 46 42 39 53 53 55 55 70 76 69 56 54 42 42 37 31 32 32 21 29 37 42 41 40 38 34 34 32
29 36 41 40 36 31 47 51 51 47 40 41 55 66 66 72 89 65 53 31 36 49 47 40 49 56 56 61 69 66 75 57 52 44 26 31 31 27 20 28 38 42 44 40 35 32 31 33 30
38 47 48 31 23 27 40 37 43 45 29 52 69 60 53 62 56 48 54 64 67 51 35 38 49 53 57 63 66 58 58 52 42 42 38 37 35 37 37 31 37 37 40 37 30 26 27 27 27
50 51 41 39 21 34 29 31 37 34 38 40 49 56 65 57 60 63 65 57 56 42 42 38 47 49 57 57 50 41 45 40 35 46 41 38 38 38 28 30 37 35 32 25 22 21 19 21 23
48 29 43 36 21 32 20 33 41 27 34 38 50 60 79 79 83 88 75 66 52 43 40 38 39 50 52 46 41 44 45 42 33 34 37 39 34 30 31 30 29 25 19 16 15 16 16 22 28
48 29 36 26 32 34 37 19 35 17 17 18 21 48 57 65 74 75 62 40 47 45 38 30 43 46 42 38 41 43 44 29 36 37 28 27 28 25 28 28 19 11 12 13 14 15 18 22 25
34 31 36 33 24 22 38 29 51 28 22 18 18 44 62 68 39 48 38 39 49 40 31 34 41 46 44 42 45 41 43 36 31 30 23 19 18 23 29 22 13 9 8 9 7 5 6 6 10
32 24 13 19 20 33 28 24 36 14 26 44 30 44 31 11 27 47 56 56 49 42 37 36 45 50 48 43 41 41 35 33 39 28 21 20 21 17 15 16 13 8 10 5 2 3 4 5 5
26 31 18 26 23 34 26 17 22 39 24 40 45 45 34 47 55 62 64 59 48 42 39 46 54 53 51 42 38 38 30 29 22 20 19 20 17 10 11 13 6 9 6 6 9 7 5 5 7
39 32 40 35 19 16 11 25 42 52 40 21 29 36 57 62 60 58 52 47 45 42 46 56 50 53 51 42 37 26 24 23 21 21 12 10 5 13 13 6 4 3 1 5 12 13 13 10 6
37 22 15 21 27 27 14 26 25 23 37 32 17 33 57 66 63 57 52 51 45 45 49 48 44 54 43 38 32 22 21 16 14 14 8 6 21 17 6 6 7 4 5 5 9 11 9 10 11
14 33 23 18 15 22 13 21 21 38 30 22 24 53 66 73 68 61 60 51 45 52 47 43 46 46 40 38 27 25 19 10 8 3 6 19 19 14 11 12 12 11 10 4 4 4 11 13 10
36 42 32 17 37 17 9 17 15 12 15 20 28 57 68 75 69 67 64 55 57 54 47 44 43 43 34 37 27 24 16 14 14 8 12 24 21 23 11 6 4 10 15 13 8 7 18 17 10
Wind_Direction_500mb
261 174 157 143 26 195 241 258 244 335 33 29 32 41 4 57 97 141 139 170 171 140 170 179 179 181 181 174 168 161 153 148 137 115 83 54 34 13 4 352 328 303 287 274 269 268 268 271 268
195 167 192 280 171 267 268 255 142 2 36 21 350 252 87 89 101 120 133 160 182 146 185 190 187 185 184 181 179 171 163 161 156 137 110 66 31 11 358 349 324 299 297 292 290 284 277 270 277
188 182 298 185 201 211 229 276 141 130 304 315 25 8 340 113 122 134 147 156 186 191 196 197 191 191 189 190 189 183 177 174 172 160 140 72 14 357 344 332 314 280 284 278 284 280 286 283 263
174 182 250 249 257 265 249 270 115 91 91 308 263 127 91 124 95 123 146 160 192 211 217 210 200 196 199 197 197 195 189 185 188 186 181 134 355 347 336 316 304 288 278 275 280 282 284 288 254
217 245 247 234 261 268 269 254 157 158 195 214 221 234 125 108 111 82 155 185 208 242 235 217 209 202 204 203 203 203 200 198 201 206 211 238 313 329 328 321 310 290 282 282 280 272 265 268 260
257 224 266 239 260 263 276 277 239 198 323 350 29 171 129 128 108 92 107 274 250 226 218 225 216 210 209 208 206 208 209 208 212 216 223 241 271 296 314 319 312 304 292 282 281 277 271 266 263
244 359 241 265 268 279 274 316 39 49 9 50 46 85 142 144 155 158 196 266 250 226 226 221 224 213 215 214 213 213 213 217 221 223 228 244 261 279 294 307 306 313 307 299 299 292 280 273 265
245 174 287 269 269 280 287 312 323 332 359 21 53 21 157 175 166 174 167 198 318 238 230 229 220 218 214 217 218 220 219 221 227 229 232 244 254 269 281 296 297 299 312 323 319 305 283 278 273
223 224 222 249 254 264 296 310 321 322 350 318 327 321 319 310 295 307 356 316 294 286 229 240 224 229 218 217 221 222 224 226 229 231 236 243 250 260 272 282 294 307 319 326 331 327 296 279 272
218 221 219 231 261 278 288 303 302 304 14 301 284 303 306 303 299 289 293 308 306 288 280 233 227 227 220 217 220 224 227 230 231 232 236 245 249 256 262 276 290 302 310 304 311 331 335 324 285
229 238 244 250 259 268 284 294 292 299 298 268 293 283 263 238 272 279 278 283 288 283 292 273 237 232 224 218 226 224 227 235 235 235 237 244 247 249 250 266 275 274 285 278 291 293 295 302 296
243 239 242 250 255 271 275 282 285 286 287 298 301 303 293 286 291 277 253 268 262 272 272 291 238 235 225 223 232 237 233 237 235 235 240 243 243 244 247 257 269 261 263 274 278 279 280 274 260
236 242 245 251 248 254 266 271 273 275 284 287 287 290 295 286 279 282 269 272 265 268 262 262 263 255 231 226 234 242 244 242 235 235 244 241 241 240 243 242 242 243 257 271 262 262 277 264 244
259 249 252 247 250 254 258 266 270 270 274 283 288 287 284 287 285 283 270 269 262 261 245 263 262 250 242 228 239 245 244 253 242 237 237 228 229 241 244 249 250 251 261 269 254 243 251 252 248
267 271 270 250 248 248 260 265 256 269 278 274 272 276 273 278 281 275 275 273 262 238 271 279 269 252 239 237 241 239 238 243 236 235 234 230 229 238 250 242 242 255 264 274 252 245 248 258 250
268 275 259 255 254 252 253 261 261 266 261 268 286 279 275 274 270 273 291 271 222 244 263 281 263 253 241 235 233 223 223 227 228 225 216 222 222 237 261 258 249 254 267 269 267 268 254 259 254
233 239 251 256 238 252 228 267 271 273 268 258 260 261 265 263 264 269 277 280 260 258 264 278 266 251 244 231 226 213 212 216 211 204 211 219 233 253 261 270 258 267 277 274 275 273 260 255 255
216 223 235 247 243 233 241 252 264 263 262 260 261 255 253 259 255 265 272 271 263 253 266 268 254 248 238 233 221 212 214 211 213 210 214 221 231 242 257 273 275 278 277 278 275 272 258 256 252
260 233 246 247 243 256 254 259 266 267 252 263 266 269 258 246 257 256 258 279 274 256 256 265 244 235 232 225 217 203 210 205 206 203 209 215 231 238 240 250 266 275 279 281 277 274 263 255 244
248 262 259 265 253 244 247 256 252 253 257 255 252 260 268 270 269 247 262 277 275 257 258 247 235 226 225 221 215 210 209 210 222 217 211 227 233 242 258 268 274 275 284 285 282 272 257 248 233
230 238 252 259 293 282 295 288 282 282 278 276 271 276 280 257 262 269 270 278 267 253 252 241 227 225 218 211 197 193 194 204 212 214 216 231 238 248 260 267 272 276 279 282 267 259 250 244 227
243 236 246 261 252 255 247 273 262 267 268 258 260 261 266 265 269 267 263 263 250 235 231 220 219 202 198 195 189 189 188 193 194 201 215 221 235 244 263 287 290 287 278 280 278 264 253 238 240
251 229 257 254 243 261 258 260 263 204 248 282 267 270 267 266 262 255 247 232 211 216 209 204 191 188 187 182 185 178 183 178 184 204 221 211 228 260 280 285 281 290 281 284 276 268 260 250 246
266 241 246 257 260 269 244 228 261 242 254 250 259 266 270 279 264 249 208 195 184 189 187 181 172 174 174 171 173 176 179 189 188 186 197 212 247 272 269 267 240 270 302 282 264 238 249 230 232
250 237 248 234 231 239 221 240 249 246 227 242 244 258 272 200 150 156 160 164 170 170 172 167 165 165 167 166 175 176 176 177 185 184 204 239 257 271 260 222 228 272 279 278 210 207 172 206 223
253 225 215 217 214 250 256 248 252 244 240 242 249 258 134 133 141 147 156 158 161 163 163 161 162 159 167 164 166 176 192 200 197 203 218 245 255 281 193 197 225 249 247 227 227 228 211 195 212
252 250 224 247 276 247 240 243 263 260 256 240 240 174 130 133 140 146 148 152 158 155 154 158 157 160 167 167 167 175 175 168 183 206 220 243 256 170 178 149 198 175 300 257 262 259 256 246 202
232 253 236 224 233 256 233 258 256 288 236 237 177 137 133 138 140 142 148 152 153 150 149 156 157 159 164 161 168 160 157 179 199 220 205 191 152 152 137 107 68 56 330 322 262 257 247 228 204
283 240 247 236 202 235 246 265 256 238 222 216 160 144 141 142 144 145 150 151 151 150 152 153 153 157 161 162 164 154 170 192 193 233 168 165 152 148 147 88 39 10 8 357 280 214 200 225 244
280 286 226 233 222 246 216 260 294 98 113 147 149 145 143 146 146 149 151 150 153 155 155 155 155 162 164 163 168 175 184 203 208 193 182 179 176 160 137 91 279 329 347 346 335 254 228 218 223
Wind_Speed_850mb
6 8 12 6 5 4 7 15 20 15 14 32 28 17 5 15 12 10 40 39 28 15 30 31 32 31 27 25 25 24 21 16 11 9 8 7 8 9 9 10 10 11 9 8 8 9 9 10 9
9 12 2 5 3 4 10 18 2 7 11 32 27 10 17 14 52 44 40 26 14 6 23 29 34 33 30 28 27 26 24 19 14 9 6 4 5 7 9 9 9 10 11 10 10 10 9 8 9
22 14 7 7 7 11 10 12 11 12 24 25 9 10 3 16 34 30 28 30 13 12 19 30 35 32 30 30 28 28 27 22 16 11 6 2 4 7 11 11 8 8 9 10 12 13 14 13 11
15 8 13 3 19 27 22 22 12 9 7 51 35 4 15 19 18 27 24 17 13 16 17 31 41 37 34 35 32 31 29 25 20 13 7 1 5 9 12 12 12 10 11 14 17 18 19 18 17
14 6 7 8 18 27 28 39 44 26 34 75 44 14 29 40 32 22 16 18 21 17 24 28 49 45 41 40 37 35 32 29 24 18 11 5 6 11 14 14 13 14 15 16 17 21 27 27 25
12 8 5 11 22 34 33 48 18 19 6 26 10 25 18 35 27 16 7 14 29 34 34 29 42 52 45 46 43 41 37 34 30 26 19 15 13 15 17 19 18 18 18 21 27 30 34 33 31
10 5 11 16 29 38 32 41 10 8 17 14 18 11 40 40 21 14 16 8 37 44 45 41 42 51 53 51 48 46 44 40 38 34 28 24 22 21 21 22 16 17 18 21 25 30 34 37 38
11 2 10 12 26 39 38 36 34 20 3 6 22 7 9 29 15 17 19 5 10 37 47 50 49 50 55 58 55 54 51 48 47 43 37 33 31 26 25 24 19 20 19 23 27 30 31 34 35
32 6 11 21 22 33 52 25 43 38 15 25 32 27 39 40 43 13 14 19 15 25 39 50 51 52 52 60 59 60 58 57 56 53 48 44 40 32 28 25 21 20 20 22 22 30 20 21 27
33 13 19 23 29 34 40 32 55 41 23 37 51 39 65 59 30 28 24 28 31 33 45 53 57 57 60 55 56 63 64 66 68 66 57 52 45 39 32 25 22 17 19 20 21 18 15 13 19
50 44 31 40 55 63 51 51 51 41 15 24 21 37 36 44 51 22 26 34 36 44 39 30 46 55 69 58 52 58 62 69 74 73 64 60 52 44 36 22 22 18 24 22 22 17 18 14 7
38 54 56 45 63 67 47 62 49 53 44 57 63 68 51 46 42 37 33 31 38 51 38 49 35 60 73 63 58 56 50 63 78 78 69 68 58 47 37 26 24 27 26 21 21 22 20 17 17
49 42 54 61 63 73 80 63 54 63 72 71 60 68 66 57 66 64 44 38 43 59 37 34 40 49 72 72 63 59 52 53 58 53 60 70 59 44 32 31 25 31 33 33 23 22 32 27 23
43 46 55 56 67 69 55 60 63 62 64 68 71 79 81 67 61 65 57 55 53 52 29 31 37 46 62 73 65 63 55 53 51 48 47 50 43 33 31 27 27 34 40 35 35 30 35 39 36
55 40 38 51 58 55 64 56 59 68 68 76 71 73 68 68 76 76 76 76 66 28 24 35 37 45 64 69 67 66 58 52 52 49 42 40 36 33 30 35 42 39 39 39 32 43 44 44 42
36 31 42 44 41 58 36 80 40 60 71 59 73 85 75 70 71 73 59 67 40 37 37 43 42 46 57 68 72 68 54 51 46 46 46 42 37 37 36 36 38 37 39 39 35 38 46 46 43
33 41 44 49 44 36 27 65 34 63 64 67 85 87 84 85 77 66 54 53 63 62 48 45 51 49 55 61 76 76 61 59 44 56 56 47 39 36 35 33 30 30 36 40 41 40 40 40 39
25 43 48 59 21 35 45 62 57 85 72 71 75 74 76 70 63 53 64 62 51 46 42 39 53 53 55 55 70 76 69 56 54 42 42 37 31 32 32 21 29 37 42 41 40 38 34 34 32
29 36 41 40 36 31 47 51 51 47 40 41 55 66 66 72 89 65 53 31 36 49 47 40 49 56 56 61 69 66 75 57 52 44 26 31 31 27 20 28 38 42 44 40 35 32 31 33 30
38 47 48 31 23 27 40 37 43 45 29 52 69 60 53 62 56 48 54 64 67 51 35 38 49 53 57 63 66 58 58 52 42 42 38 37 35 37 37 31 37 37 40 37 30 26 27 27 27
50 51 41 39 21 34 29 31 37 34 38 40 49 56 65 57 60 63 65 57 56 42 42 38 47 49 57 57 50 41 45 40 35 46 41 38 38 38 28 30 37 35 32 25 22 21 19 21 23
48 29 43 36 21 32 20 33 41 27 34 38 50 60 79 79 83 88 75 66 52 43 40 38 39 50 52 46 41 44 45 42 33 34 37 39 34 30 31 30 29 25 19 16 15 16 16 22 28
48 29 36 26 32 34 37 19 35 17 17 18 21 48 57 65 74 75 62 40 47 45 38 30 43 46 42 38 41 43 44 29 36 37 28 27 28 25 28 28 19 11 12 13 14 15 18 22 25
34 31 36 33 24 22 38 29 51 28 22 18 18 44 62 68 39 48 38 39 49 40 31 34 41 46 44 42 45 41 43 36 31 30 23 19 18 23 29 22 13 9 8 9 7 5 6 6 10
32 24 13 19 20 33 28 24 36 14 26 44 30 44 31 11 27 47 56 56 49 42 37 36 45 50 48 43 41 41 35 33 39 28 21 20 21 17 15 16 13 8 10 5 2 3 4 5 5
26 31 18 26 23 34 26 17 22 39 24 40 45 45 34 47 55 62 64 59 48 42 39 46 54 53 51 42 38 38 30 29 22 20 19 20 17 10 11 13 6 9 6 6 9 7 5 5 7
39 32 40 35 19 16 11 25 42 52 40 21 29 36 57 62 60 58 52 47 45 42 46 56 50 53 51 42 37 26 24 23 21 21 12 10 5 13 13 6 4 3 1 5 12 13 13 10 6
37 22 15 21 27 27 14 26 25 23 37 32 17 33 57 66 63 57 52 51 45 45 49 48 44 54 43 38 32 22 21 16 14 14 8 6 21 17 6 6 7 4 5 5 9 11 9 10 11
14 33 23 18 15 22 13 21 21 38 30 22 24 53 66 73 68 61 60 51 45 52 47 43 46 46 40 38 27 25 19 10 8 3 6 19 19 14 11 12 12 11 10 4 4 4 11 13 10
36 42 32 17 37 17 9 17 15 12 15 20 28 57 68 75 69 67 64 55 57 54 47 44 43 43 34 37 27 24 16 14 14 8 12 24 21 23 11 6 4 10 15 13 8 7 18 17 10
Wind_Direction_850mb
261 174 157 143 26 195 241 258 244 335 33 29 32 41 4 57 97 141 139 170 171 140 170 179 179 181 181 174 168 161 153 148 137 115 83 54 34 13 4 352 328 303 287 274 269 268 268 271 268
195 167 192 280 171 267 268 255 142 2 36 21 350 252 87 89 101 120 133 160 182 146 185 190 187 185 184 181 179 171 163 161 156 137 110 66 31 11 358 349 324 299 297 292 290 284 277 270 277
188 182 298 185 201 211 229 276 141 130 304 315 25 8 340 113 122 134 147 156 186 191 196 197 191 191 189 190 189 183 177 174 172 160 140 72 14 357 344 332 314 280 284 278 284 280 286 283 263
174 182 250 249 257 265 249 270 115 91 91 308 263 127 91 124 95 123 146 160 192 211 217 210 200 196 199 197 197 195 189 185 188 186 181 134 355 347 336 316 304 288 278 275 280 282 284 288 254
217 245 247 234 261 268 269 254 157 158 195 214 221 234 125 108 111 82 155 185 208 242 235 217 209 202 204 203 203 203 200 198 201 206 211 238 313 329 328 321 310 290 282 282 280 272 265 268 260
257 224 266 239 260 263 276 277 239 198 323 350 29 171 129 128 108 92 107 274 250 226 218 225 216 210 209 208 206 208 209 208 212 216 223 241 271 296 314 319 312 304 292 282 281 277 271 266 263
244 359 241 265 268 279 274 316 39 49 9 50 46 85 142 144 155 158 196 266 250 226 226 221 224 213 215 214 213 213 213 217 221 223 228 244 261 279 294 307 306 313 307 299 299 292 280 273 265
245 174 287 269 269 280 287 312 323 332 359 21 53 21 157 175 166 174 167 198 318 238 230 229 220 218 214 217 218 220 219 221 227 229 232 244 254 269 281 296 297 299 312 323 319 305 283 278 273
223 224 222 249 254 264 296 310 321 322 350 318 327 321 319 310 295 307 356 316 294 286 229 240 224 229 218 217 221 222 224 226 229 231 236 243 250 260 272 282 294 307 319 326 331 327 296 279 272
218 221 219 231 261 278 288 303 302 304 14 301 284 303 306 303 299 289 293 308 306 288 280 233 227 227 220 217 220 224 227 230 231 232 236 245 249 256 262 276 290 302 310 304 311 331 335 324 285
229 238 244 250 259 268 284 294 292 299 298 268 293 283 263 238 272 279 278 283 288 283 292 273 237 232 224 218 226 224 227 235 235 235 237 244 247 249 250 266 275 274 285 278 291 293 295 302 296
243 239 242 250 255 271 275 282 285 286 287 298 301 303 293 286 291 277 253 268 262 272 272 291 238 235 225 223 232 237 233 237 235 235 240 243 243 244 247 257 269 261 263 274 278 279 280 274 260
236 242 245 251 248 254 266 271 273 275 284 287 287 290 295 286 279 282 269 272 265 268 262 262 263 255 231 226 234 242 244 242 235 235 244 241 241 240 243 242 242 243 257 271 262 262 277 264 244
259 249 252 247 250 254 258 266 270 270 274 283 288 287 284 287 285 283 270 269 262 261 245 263 262 250 242 228 239 245 244 253 242 237 237 228 229 241 244 249 250 251 261 269 254 243 251 252 248
267 271 270 250 248 248 260 265 256 269 278 274 272 276 273 278 281 275 275 273 262 238 271 279 269 252 239 237 241 239 238 243 236 235 234 230 229 238 250 242 242 255 264 274 252 245 248 258 250
268 275 259 255 254 252 253 261 261 266 261 268 286 279 275 274 270 273 291 271 222 244 263 281 263 253 241 235 233 223 223 227 228 225 216 222 222 237 261 258 249 254 267 269 267 268 254 259 254
233 239 251 256 238 252 228 267 271 273 268 258 260 261 265 263 264 269 277 280 260 258 264 278 266 251 244 231 226 213 212 216 211 204 211 219 233 253 261 270 258 267 277 274 275 273 260 255 255
216 223 235 247 243 233 241 252 264 263 262 260 261 255 253 259 255 265 272 271 263 253 266 268 254 248 238 233 221 212 214 211 213 210 214 221 231 242 257 273 275 278 277 278 275 272 258 256 252
260 233 246 247 243 256 254 259 266 267 252 263 266 269 258 246 257 256 258 279 274 256 256 265 244 235 232 225 217 203 210 205 206 203 209 215 231 238 240 250 266 275 279 281 277 274 263 255 244
248 262 259 265 253 244 247 256 252 253 257 255 252 260 268 270 269 247 262 277 275 257 258 247 235 226 225 221 215 210 209 210 222 217 211 227 233 242 258 268 274 275 284 285 282 272 257 248 233
230 238 252 259 293 282 295 288 282 282 278 276 271 276 280 257 262 269 270 278 267 253 252 241 227 225 218 211 197 193 194 204 212 214 216 231 238 248 260 267 272 276 279 282 267 259 250 244 227
243 236 246 261 252 255 247 273 262 267 268 258 260 261 266 265 269 267 263 263 250 235 231 220 219 202 198 195 189 189 188 193 194 201 215 221 235 244 263 287 290 287 278 280 278 264 253 238 240
251 229 257 254 243 261 258 260 263 204 248 282 267 270 267 266 262 255 247 232 211 216 209 204 191 188 187 182 185 178 183 178 184 204 221 211 228 260 280 285 281 290 281 284 276 268 260 250 246
266 241 246 257 260 269 244 228 261 242 254 250 259 266 270 279 264 249 208 195 184 189 187 181 172 174 174 171 173 176 179 189 188 186 197 212 247 272 269 267 240 270 302 282 264 238 249 230 232
250 237 248 234 231 239 221 240 249 246 227 242 244 258 272 200 150 156 160 164 170 170 172 167 165 165 167 166 175 176 176 177 185 184 204 239 257 271 260 222 228 272 279 278 210 207 172 206 223
253 225 215 217 214 250 256 248 252 244 240 242 249 258 134 133 141 147 156 158 161 163 163 161 162 159 167 164 166 176 192 200 197 203 218 245 255 281 193 197 225 249 247 227 227 228 211 195 212
252 250 224 247 276 247 240 243 263 260 256 240 240 174 130 133 140 146 148 152 158 155 154 158 157 160 167 167 167 175 175 168 183 206 220 243 256 170 178 149 198 175 300 257 262 259 256 246 202
232 253 236 224 233 256 233 258 256 288 236 237 177 137 133 138 140 142 148 152 153 150 149 156 157 159 164 161 168 160 157 179 199 220 205 191 152 152 137 107 68 56 330 322 262 257 247 228 204
283 240 247 236 202 235 246 265 256 238 222 216 160 144 141 142 144 145 150 151 151 150 152 153 153 157 161 162 164 154 170 192 193 233 168 165 152 148 147 88 39 10 8 357 280 214 200 225 244
280 286 226 233 222 246 216 260 294 98 113 147 149 145 143 146 146 149 151 150 153 155 155 155 155 162 164 163 168 175 184 203 208 193 182 179 176 160 137 91 279 329 347 346 335 254 228 218 223